Air Resources Laboratory banner image
Air Resources Laboratory web site National Oceanic and Atmospheric Administration (NOAA)

fl roundup


Office: TBW

ASUS42 KTBW 221017
RWRFL
FLORIDA REGIONAL WEATHER ROUNDUP
NATIONAL WEATHER SERVICE TAMPA BAY RUSKIN FL
600 AM EDT SUN JUL 22 2018

NOTE: "FAIR" INDICATES FEW OR NO CLOUDS BELOW 12,000 FEET WITH NO
SIGNIFICANT WEATHER AND/OR OBSTRUCTIONS TO VISIBILITY.

FLZ001>010-012>015-112-114-115-221100-
PANHANDLE FLORIDA

CITY           SKY/WX    TMP DP  RH WIND       PRES   REMARKS
PENSACOLA      FAIR      83  76  79 W10       29.86S
MILTON NAS     FAIR      78  76  93 W6        29.86R
CRESTVIEW      MOCLDY    83  73  72 W7        29.86S
DUKE FIELD     FAIR      82  74  77 W6        29.85S
VALPARAISO     PTCLDY    83  74  75 NW8       29.84S
MARY ESTHER    CLEAR     84  76  75 W3        29.84S
PANAMA CITY    FAIR      84  80  88 SW9       29.83S HX  97
TYNDALL AFB    FAIR     N/A N/A N/A W15       29.86F
APALACHICOLA   MOCLDY    84  83  96 W10       29.84F HX 102

STATION/POSITION SKY/WX   TEMP    WIND        PRES    WAVE   SWELL
                          AIR SEA DIR/SP/G            HT/PER HT/PER
                          (F)     (DEG/KT/KT) (MB)    (FT/S) (FT/S)
30.1N   87.6W              84     270/ 17/ 21 1011.5R   4/ 6
29.2N   88.2W                 85  270/ 16/ 19 1012.8R   4/ 5
28.8N   86.0W              85 85  280/ 19/ 23 1011.8R   5/ 6
PANAMA CITY BEAC           83 81  260/ 15/ 18 1011.1F
TOWER C                    84     280/ 19/ 22 1011.5R

$$
FLZ011-016>038-118-127-128-134-139-239-221100-
NORTH FLORIDA

CITY           SKY/WX    TMP DP  RH WIND       PRES   REMARKS
MARIANNA       FAIR      79  77  94 W6        29.82S
TALLAHASSEE    FAIR      82  80  94 W13       29.82S
PERRY          MOCLDY    82  80  91 W6        29.84S
LIVE OAK       CLOUDY    79  79 100 CALM      29.86S
CROSS CITY     MOCLDY    81 N/A N/A SW5       29.86S HAZE
LAKE CITY      CLOUDY    77  77 100 SW5       29.86S FOG
GAINESVILLE    FAIR      81  77  88 SW5       29.89S
WILLISTON        N/A     81  81 100 CALM      29.87F
PALATKA        MOCLDY    77  77 100 SW6       29.87R
MAYPORT NAS    MOCLDY    80  78  94 SW8       29.83R
JACKSONVILLE   MOCLDY    78  78 100 SW10      29.83R
JAX NAS        MOCLDY    78  77  96 SW9       29.84S
JAX CECIL      CLOUDY    79  77  94 SW7       29.85R
FERNANDINA BEA FAIR      78  76  92 W8        29.81R
ST AUGUSTINE   FAIR      78  76  93 W9        29.85S
PALM COAST     PTCLDY    75  73  94 SW5       29.86S

STATION/POSITION SKY/WX   TEMP    WIND        PRES    WAVE   SWELL
                          AIR SEA DIR/SP/G            HT/PER HT/PER
                          (F)     (DEG/KT/KT) (MB)    (FT/S) (FT/S)
SHELL POINT      NOT AVBL
KEATON BEACH               84     270/ 15/ 18 1010.7S
CEDAR KEY                  84     280/  8/ 11 1011.9R
FERNANDINA                 79 84  230/  4/ 11 1010.5R
30.7N   81.3W                 83                N/A     2/ 3
MAYPORT                    80 83  240/ 11/ 13 1010.2S
31.4N   80.9W              80 84  220/ 16/ 17 1008.7R   3/ 4   2/ 7
ST AUGUSTINE               78 80  250/  7/ 11 1010.7S

$$
FLZ040-043>046-052-053-057-058-063-144-221100-
INTERIOR CENTRAL FLORIDA

CITY           SKY/WX    TMP DP  RH WIND       PRES   REMARKS
OCALA          FAIR      79  77  94 S6        29.89R FOG
LEESBURG       FAIR      79  79 100 SW6       29.89F FOG
SANFORD        FAIR      79  77  94 SW7       29.88S
ORLANDO INTL   MOCLDY    77  77 100 S5        29.90S
WINTER HAVEN   FAIR      79  78  97 SW5       29.92R
LAKELAND       CLEAR     79  79 100 CALM      29.91  FOG
BARTOW           N/A    N/A N/A N/A MISG        N/A
SEBRING        PTSUNNY   78  76  92 SW5       29.91S
OKEECHOBEE     FAIR      75  73  94 SW3       29.92R

$$
FLZ041-047-054-059-064-141-147-221100-
EAST CENTRAL FLORIDA

CITY           SKY/WX    TMP DP  RH WIND       PRES   REMARKS
DAYTONA BEACH  MOCLDY    77  77 100 SW8       29.87S
DELAND         MOCLDY    77  75  94 SW5       29.88S
CAPE CANAVERAL FAIR      79  77  92 SW6       29.88F
PATRICK AFB    FAIR      79  79 100 SW10      29.89S
MELBOURNE      FAIR      79  75  87 SW6       29.90R
VERO BEACH     CLOUDY    77  76  96 SW5       29.91R FOG
FT PIERCE      FAIR      77  77 100 W3        29.91R
STUART         FAIR      79  77  94 W3        29.92S

STATION/POSITION SKY/WX   TEMP    WIND        PRES    WAVE   SWELL
                          AIR SEA DIR/SP/G            HT/PER HT/PER
                          (F)     (DEG/KT/KT) (MB)    (FT/S) (FT/S)
28.5N   80.2W              82     260/ 12/ 14 1012.3R   2/ 9   2/ 9
28.9N   78.5W              83 84  240/ 12/ 16 1012.1R   4/ 5   3/ 9
TRIDENT PIER               80 83  230/  7/  9 1013.6F
27.5N   80.2W                 83                N/A     1/ 9

$$
FLZ050-056-061-142-242-148-248-149-249-151-251-155-255-
160-260-221100-
WEST CENTRAL FLORIDA

CITY           SKY/WX    TMP DP  RH WIND       PRES   REMARKS
CRYSTAL RIVER  FAIR      81  79  94 W7        29.89R
INVERNESS      MOCLDY    81  81 100 CALM      29.89R
BROOKSVILLE    FAIR      80  78  94 SW7       29.90S
CLEARWATER AIR MOCLDY    82  77  83 W6        29.91R
ST PETE CLEARW FAIR      82  79  90 W9        29.90S
TAMPA INTL     MOCLDY    84  77  79 W12       29.91R
TAMPA EXEC     FAIR      81  79  94 CALM      29.91S
PLANT CITY     FAIR      81  79  94 CALM      29.93S
MACDILL AFB    FAIR      83  78  83 W5        29.91R
PETER O KNIGHT MOCLDY    82  79  89 W3        29.91S
ST PETERSBURG  FAIR      85  78  80 W9        29.89R HX  96
SARASOTA       FAIR      84  79  85 W14       29.90R HX  96
VENICE         FAIR      84  79  84 W13       29.92S HX  96

STATION/POSITION SKY/WX   TEMP    WIND        PRES    WAVE   SWELL
                          AIR SEA DIR/SP/G            HT/PER HT/PER
                          (F)     (DEG/KT/KT) (MB)    (FT/S) (FT/S)
27.3N   84.2W                 86                N/A     4/ 5
CLEARWATER BEACH           85 87  240/ 14/ 17 1012.7R
MIDDLE TAMPA BAY           84     280/ 14/ 18 1012.6R
VENICE                     85 87  270/ 12/ 15   N/A

$$
FLZ066-069-070-075>078-162-262-165-265-221100-
SOUTHWEST FLORIDA AND KEYS

CITY           SKY/WX    TMP DP  RH WIND       PRES   REMARKS
PUNTA GORDA    FAIR      82  76  81 W5        29.93R
FT MYERS       FAIR      81  78  91 W6        29.91S
SOUTHWEST INTL FAIR      81  76  84 W6        29.92S
NAPLES         FAIR      86  80  82 W8        29.92F HX 101
MARCO ISLAND     N/A    N/A N/A N/A MISG        N/A
IMMOKALEE        N/A    N/A N/A N/A MISG        N/A
MARATHON       FAIR      83  75  77 SW7       29.95S
KEY WEST NAS   FAIR      82  75  79 SW8       29.96S
KEY WEST INTL  FAIR      85  75  72 W7        29.97R

STATION/POSITION SKY/WX   TEMP    WIND        PRES    WAVE   SWELL
                          AIR SEA DIR/SP/G            HT/PER HT/PER
                          (F)     (DEG/KT/KT) (MB)    (FT/S) (FT/S)
NAPLES                     86 87              1013.3F
26.0N   85.6W              85 86  260/ 10/ 12 1014.3S   2/ 3
DRY TORTUGAS               85     240/ 12/ 13 1014.6F
SAND KEY                   83                 1014.9R
SOMBRERO KEY               84                 1013.9R
LONG KEY                   85 90  260/ 11/ 13 1014.2R
MOLASSES REEF                 87  260/ 11/ 13 1014.1

$$
FLZ067-068-071>074-168-172>174-221100-
SOUTHEAST FLORIDA

CITY           SKY/WX    TMP DP  RH WIND       PRES   REMARKS
W PALM BEACH   FAIR      78  76  93 SW5       29.93R
FT LAUDER-EXEC FAIR      82  80  94 CALM      29.93R
FT LAUDERDALE  FAIR      82  81  96 SW3       29.93R HX  95
POMPANO BEACH  FAIR      82  78  88 SW3       29.93R
PEMBROKE PINES FAIR      83  79  88 SW5       29.95R
OPA LOCKA      FAIR      82  79  90 SW6       29.94R
MIAMI          MOCLDY    81  80  97 W3        29.94R
WEST KENDALL   FAIR      81  77  88 SW5       29.94S
HOMESTEAD      FAIR      78  76  92 S5        29.94R

STATION/POSITION SKY/WX   TEMP    WIND        PRES    WAVE   SWELL
                          AIR SEA DIR/SP/G            HT/PER HT/PER
                          (F)     (DEG/KT/KT) (MB)    (FT/S) (FT/S)
PORT EVERGLADES            83     250/  5/  8 1013.6R
VIRGINIA KEY               84 89  220/  8/  9 1013.4R
LAKE WORTH                 80 81  240/  5/  6 1014.3R
FOWEY ROCKS                83 86  240/ 10/ 11 1014.7R
SETTLEMENT POINT           83     270/ 13/ 15 1013.5F

$$





Office: EYW